{"data":{"norad_id":63920,"intl_designator":"2025-096C","name":"YAOGAN-40 02C","alt_names":[],"object_type":"PAYLOAD","status":"ACTIVE","operator":null,"country":"PRC","launch_date":"2025-05-11","launch_site_code":"TAISC","launch_vehicle":null,"mission":null,"orbit_class":"UNKNOWN","rcs_meters":null,"size_class":null,"mass_kg":null,"dimensions":null,"purposes":[],"wikipedia_slug":null,"has_3d_model":false,"image_url":null,"decayed_at":null,"tle_current":{"epoch":"2026-05-25T04:28:17.907168Z","epoch_age_seconds":49171,"freshness":"FRESH","line1":"1 63920U 25096C   26145.18631837  .00000126  00000+0  58057-4 0  9994","line2":"2 63920  85.9971 197.5177 0002465 101.0886 259.0575 14.12443318 72169","mean_motion":14.12443318,"eccentricity":0.0002465,"inclination_deg":85.9971,"raan_deg":197.5177,"arg_perigee_deg":101.0886,"mean_anomaly_deg":259.0575,"bstar":5.8057e-5,"rev_number":7216,"period_min":101.95099383096,"perigee_km":849.24077032393,"apogee_km":852.80474608472,"semimajor_km":7229.1597582043,"source":"CELESTRAK","updated_at":"2026-05-25T13:38:04.085008Z"}}}